Location: Unspecified
(41.5000°N, 0.0000°E)
Time: 21:07:55
(UTC+00:00)

deb Explorer IX - Pass Details

Date: 27 June 2019
Orbit: 539 x 1112 km, 38.8° (Epoch: 21 July)

Event Time Altitude Azimuth Distance (km) Brightness Sun altitude
Rises 15:01:44 0° 274° (W) 3,804 ? 48.7°
Reaches altitude 10° 15:04:24 10° 271° (W) 2,900 ? 48.2°
Maximum altitude 15:11:31 65° 192° (SSW) 1,212 ? 46.9°
Drops below altitude 10° 15:18:46 10° 113° (ESE) 2,942 ? 45.6°
Sets 15:21:30 0° 110° (ESE) 3,863 ? 45.1°
